When you browse on this site, cookies collect data to enhance your experience and personalize the content and advertising you see.
Visit our Privacy Policy to learn more. By continuing to use the site, you agree to this use of cookies and data.
  • Em Portugal
  • Lista de países
  • Para 7 dias
  • Temperatura da água
  • Mapas de satélite
  • Mapa do tempo
  • Widgets de tempo
  • user-avatar
    Iniciar Sessão

    Previsão horária em Praca

    Hoje, 22 Março, Sexta-feira

    Tempo Temperatura Precipitação Vento Pressão Humidade
    00:00 +7°C° 0.1 mm 6 m/s 749 mmHg 88%
    01:00 +7°C° 0.1 mm 6 m/s 749 mmHg 89%
    02:00 +7°C° 0 mm 5 m/s 748 mmHg 89%
    03:00 +7°C° 0 mm 5 m/s 748 mmHg 89%
    04:00 +7°C° 0 mm 6 m/s 748 mmHg 88%
    05:00 +7°C° 0 mm 6 m/s 748 mmHg 88%
    06:00 +5°C° 0.1 mm 6 m/s 749 mmHg 86%
    07:00 +5°C° 0.1 mm 7 m/s 749 mmHg 85%
    08:00 +5°C° 0 mm 7 m/s 750 mmHg 81%
    09:00 +5°C° 0 mm 8 m/s 750 mmHg 68%
    10:00 +5°C° 0 mm 8 m/s 751 mmHg 55%
    11:00 +5°C° 0 mm 9 m/s 752 mmHg 43%
    12:00 +5°C° 0 mm 9 m/s 752 mmHg 40%
    13:00 +5°C° 0 mm 9 m/s 752 mmHg 37%
    14:00 +6°C° 0 mm 9 m/s 753 mmHg 34%
    15:00 +5°C° 0 mm 8 m/s 753 mmHg 34%
    16:00 +5°C° 0 mm 8 m/s 753 mmHg 35%
    17:00 +4°C° 0 mm 7 m/s 753 mmHg 35%
    18:00 +3°C° 0 mm 7 m/s 754 mmHg 39%
    19:00 +2°C° 0 mm 6 m/s 754 mmHg 43%
    20:00 +1°C° 0 mm 5 m/s 754 mmHg 46%
    21:00 0°C° 0 mm 5 m/s 754 mmHg 50%
    22:00 -1°C° 0 mm 4 m/s 754 mmHg 54%
    23:00 -1°C° 0 mm 4 m/s 754 mmHg 57%

    Amanhã, 23 Março, Sábado

    Tempo Temperatura Precipitação Vento Pressão Humidade
    00:00 -2°C° 0 mm 4 m/s 755 mmHg 60%
    01:00 -2°C° 0 mm 4 m/s 755 mmHg 64%
    02:00 -1°C° 0 mm 3 m/s 755 mmHg 67%
    03:00 -2°C° 0 mm 3 m/s 755 mmHg 68%
    04:00 -2°C° 0 mm 3 m/s 754 mmHg 70%
    05:00 -2°C° 0 mm 2 m/s 754 mmHg 71%
    06:00 -1°C° 0 mm 2 m/s 754 mmHg 67%
    07:00 -1°C° 0 mm 2 m/s 754 mmHg 63%
    08:00 +1°C° 0 mm 2 m/s 755 mmHg 59%
    09:00 +4°C° 0 mm 1 m/s 754 mmHg 51%
    10:00 +5°C° 0 mm 1 m/s 754 mmHg 42%
    11:00 +7°C° 0 mm 1 m/s 754 mmHg 34%
    12:00 +8°C° 0 mm 1 m/s 753 mmHg 32%
    13:00 +8°C° 0 mm 2 m/s 753 mmHg 30%
    14:00 +9°C° 0 mm 2 m/s 752 mmHg 29%
    15:00 +9°C° 0 mm 2 m/s 752 mmHg 32%
    16:00 +9°C° 0 mm 3 m/s 751 mmHg 36%
    17:00 +9°C° 0 mm 3 m/s 751 mmHg 40%
    18:00 +7°C° 0 mm 3 m/s 750 mmHg 45%
    19:00 +5°C° 0 mm 3 m/s 750 mmHg 50%
    20:00 +4°C° 0 mm 3 m/s 750 mmHg 54%
    21:00 +4°C° 0 mm 3 m/s 749 mmHg 56%
    22:00 +4°C° 0 mm 4 m/s 748 mmHg 58%
    23:00 +4°C° 0 mm 4 m/s 748 mmHg 60%

    Depois de amanhã, 24 Março, Domingo

    Tempo Temperatura Precipitação Vento Pressão Humidade
    00:00 +4°C° 0.2 mm 4 m/s 748 mmHg 70%
    01:00 +5°C° 0.2 mm 4 m/s 747 mmHg 79%
    02:00 +5°C° 0.2 mm 4 m/s 747 mmHg 89%
    03:00 +5°C° 0 mm 4 m/s 747 mmHg 90%
    04:00 +4°C° 0 mm 4 m/s 747 mmHg 90%
    05:00 +4°C° 0 mm 4 m/s 747 mmHg 91%
    06:00 +3°C° 0 mm 4 m/s 747 mmHg 87%
    07:00 +3°C° 0 mm 4 m/s 748 mmHg 83%
    08:00 +3°C° 0 mm 4 m/s 748 mmHg 79%
    09:00 +3°C° 0 mm 5 m/s 748 mmHg 70%
    10:00 +5°C° 0 mm 5 m/s 748 mmHg 61%
    11:00 +6°C° 0 mm 5 m/s 748 mmHg 52%
    12:00 +6°C° 0 mm 5 m/s 748 mmHg 49%
    13:00 +6°C° 0 mm 5 m/s 747 mmHg 46%
    14:00 +7°C° 0 mm 6 m/s 747 mmHg 43%
    15:00 +6°C° 0 mm 5 m/s 747 mmHg 45%
    16:00 +6°C° 0 mm 5 m/s 747 mmHg 47%
    17:00 +5°C° 0 mm 5 m/s 746 mmHg 50%
    18:00 +4°C° 0 mm 4 m/s 746 mmHg 53%
    19:00 +4°C° 0 mm 4 m/s 746 mmHg 57%
    20:00 +3°C° 0 mm 3 m/s 746 mmHg 61%
    21:00 +2°C° 0 mm 3 m/s 746 mmHg 65%
    22:00 +1°C° 0 mm 3 m/s 746 mmHg 69%
    23:00 0°C° 0 mm 3 m/s 745 mmHg 74%

    25 Março, Segunda-feira

    Tempo Temperatura Precipitação Vento Pressão Humidade
    00:00 0°C° 0 mm 3 m/s 745 mmHg 78%
    01:00 0°C° 0 mm 3 m/s 745 mmHg 83%
    02:00 -1°C° 0 mm 3 m/s 745 mmHg 87%
    03:00 -1°C° 0.1 mm 3 m/s 744 mmHg 87%
    04:00 -1°C° 0.1 mm 4 m/s 743 mmHg 87%
    05:00 -1°C° 0.1 mm 4 m/s 743 mmHg 88%
    06:00 -1°C° 0.1 mm 4 m/s 743 mmHg 86%
    07:00 0°C° 0.1 mm 4 m/s 742 mmHg 84%
    08:00 0°C° 0.1 mm 5 m/s 742 mmHg 83%
    09:00 +1°C° 0 mm 5 m/s 742 mmHg 79%
    10:00 +1°C° 0 mm 5 m/s 741 mmHg 75%
    11:00 +3°C° 0 mm 4 m/s 741 mmHg 72%
    12:00 +3°C° 0.2 mm 5 m/s 740 mmHg 68%
    13:00 +3°C° 0.2 mm 5 m/s 740 mmHg 64%
    14:00 +5°C° 0.2 mm 5 m/s 740 mmHg 60%
    15:00 +5°C° 0.2 mm 5 m/s 739 mmHg 64%
    16:00 +4°C° 0.2 mm 4 m/s 739 mmHg 68%
    17:00 +4°C° 0.2 mm 4 m/s 739 mmHg 73%
    18:00 +3°C° 0.1 mm 3 m/s 739 mmHg 77%
    19:00 +3°C° 0.1 mm 2 m/s 740 mmHg 82%
    20:00 +3°C° 0.1 mm 1 m/s 740 mmHg 87%
    21:00 +2°C° 0.4 mm 2 m/s 740 mmHg 88%
    22:00 +2°C° 0.4 mm 2 m/s 741 mmHg 89%
    23:00 +2°C° 0.4 mm 2 m/s 741 mmHg 89%

    26 Março, Terça-feira

    Tempo Temperatura Precipitação Vento Pressão Humidade
    00:00 +1°C° 0.1 mm 3 m/s 742 mmHg 90%
    01:00 +1°C° 0.1 mm 3 m/s 743 mmHg 90%
    02:00 0°C° 0.1 mm 3 m/s 744 mmHg 91%
    03:00 -1°C° 0 mm 4 m/s 744 mmHg 92%
    04:00 -2°C° 0 mm 4 m/s 745 mmHg 93%
    05:00 -2°C° 0 mm 4 m/s 746 mmHg 93%
    06:00 -2°C° 0 mm 5 m/s 747 mmHg 88%
    07:00 -2°C° 0 mm 5 m/s 748 mmHg 83%
    08:00 -2°C° 0 mm 5 m/s 749 mmHg 78%
    09:00 -1°C° 0 mm 5 m/s 750 mmHg 70%
    10:00 0°C° 0 mm 5 m/s 750 mmHg 63%
    11:00 +1°C° 0 mm 5 m/s 751 mmHg 55%
    12:00 +2°C° 0 mm 5 m/s 751 mmHg 51%
    13:00 +3°C° 0 mm 5 m/s 751 mmHg 46%
    14:00 +3°C° 0 mm 5 m/s 751 mmHg 42%
    15:00 +3°C° 0 mm 5 m/s 751 mmHg 44%
    16:00 +3°C° 0 mm 5 m/s 751 mmHg 46%
    17:00 +3°C° 0 mm 5 m/s 750 mmHg 48%
    18:00 +3°C° 0 mm 4 m/s 750 mmHg 54%
    19:00 +1°C° 0 mm 4 m/s 750 mmHg 60%
    20:00 0°C° 0 mm 3 m/s 750 mmHg 66%
    21:00 0°C° 0 mm 3 m/s 750 mmHg 67%
    22:00 -1°C° 0 mm 4 m/s 750 mmHg 68%
    23:00 -1°C° 0 mm 4 m/s 750 mmHg 69%

    27 Março, Quarta-feira

    Tempo Temperatura Precipitação Vento Pressão Humidade
    00:00 -1°C° 0 mm 4 m/s 750 mmHg 73%
    01:00 -1°C° 0 mm 4 m/s 749 mmHg 77%
    02:00 -1°C° 0 mm 4 m/s 749 mmHg 80%
    03:00 -1°C° 0 mm 4 m/s 749 mmHg 82%
    04:00 -1°C° 0 mm 4 m/s 749 mmHg 84%
    05:00 -1°C° 0 mm 4 m/s 749 mmHg 85%
    06:00 -1°C° 0 mm 5 m/s 748 mmHg 85%
    07:00 0°C° 0 mm 5 m/s 748 mmHg 85%
    08:00 0°C° 0 mm 5 m/s 748 mmHg 84%
    09:00 +1°C° 0.1 mm 5 m/s 748 mmHg 83%
    10:00 +1°C° 0.1 mm 5 m/s 748 mmHg 82%
    11:00 +2°C° 0.1 mm 5 m/s 748 mmHg 81%
    12:00 +2°C° 0.1 mm 5 m/s 748 mmHg 82%
    13:00 +3°C° 0.1 mm 5 m/s 748 mmHg 82%
    14:00 +3°C° 0.1 mm 5 m/s 748 mmHg 82%
    15:00 +3°C° 0.4 mm 5 m/s 748 mmHg 84%
    16:00 +4°C° 0.4 mm 4 m/s 748 mmHg 86%
    17:00 +4°C° 0.4 mm 4 m/s 748 mmHg 88%
    18:00 +4°C° 0.5 mm 4 m/s 748 mmHg 90%
    19:00 +4°C° 0.5 mm 4 m/s 749 mmHg 91%
    20:00 +4°C° 0.5 mm 4 m/s 749 mmHg 93%
    21:00 +3°C° 0 mm 3 m/s 750 mmHg 93%
    22:00 +2°C° 0 mm 3 m/s 750 mmHg 93%
    23:00 +1°C° 0 mm 3 m/s 750 mmHg 92%
    Mostrar mais